Location: Fort Worth, Tx
(32.7431°N, 97.3695°W)
Time: 00:50:08
(UTC-04:00)

A-11 Canister half - Pass Details

Date: 02 March 2024
Orbit: 1525 x 1683 km, 47.3° (Epoch: 24 April)

Event Time Altitude Azimuth Distance (km) Brightness Sun altitude
Rises 23:09:12 0° 287° (WNW) 4,763 12.3 -46.1°
Reaches altitude 10° 23:12:48 10° 297° (WNW) 3,756 11.6 -46.8°
Enters shadow 23:19:49 32° 344° (NNW) 2,425 10.1 -48.0°
